Location: �terpigny
(49.8910°N, 2.9249°E)
Time: 12:55:23
(UTC+00:00)

SWARM C - Pass Details

Date: 24 October 2021
Orbit: 424 x 429 km, 87.3° (Epoch: 05 December)

Event Time Altitude Azimuth Distance (km) Brightness Sun altitude
Rises 18:24:19 0° 181° (S) 2,390 8.3 -17.5°
Reaches altitude 10° 18:26:20 10° 181° (S) 1,530 7.3 -17.8°
Maximum altitude 18:29:39 90° 248° (WSW) 439 4.4 -18.4°
Drops below altitude 10° 18:33:00 10° 2° (N) 1,546 7.3 -18.9°
Sets 18:35:03 0° 3° (N) 2,420 8.3 -19.2°
